Wind_Speed
43 43 40 38 38 38 50 46 46 26 34 32 31 33 26 25 23 49 48 45 37 29 42 40 38 35 33 30 27 24 21 19 16 13 10 11 12 15 18 20 19 19 19 19
44 42 39 40 38 40 49 53 48 41 24 34 24 34 20 16 20 38 29 42 48 39 23 42 37 35 33 30 27 26 23 21 19 16 13 12 13 12 16 17 20 23 25 24
37 34 36 38 30 37 44 44 44 51 47 26 22 25 29 12 15 15 41 27 25 32 27 23 25 38 35 33 30 28 26 23 21 18 15 15 15 14 13 13 18 20 22 24
31 25 31 16 26 37 40 34 40 50 44 34 27 30 27 26 20 20 16 39 24 26 31 31 29 31 39 36 34 31 28 26 24 19 17 15 15 16 15 14 15 16 18 21
30 22 18 14 22 21 31 37 39 43 44 39 35 33 33 29 25 27 22 21 28 29 34 35 32 35 39 39 38 35 33 30 26 23 17 17 17 18 18 18 17 16 15 16
26 22 20 14 17 11 18 35 36 35 38 37 35 33 31 27 28 23 26 22 27 28 37 36 41 31 30 29 31 33 32 29 25 23 23 25 20 22 23 22 22 21 21 23
18 24 17 12 10 23 11 16 29 39 31 28 26 30 32 27 24 27 27 30 31 33 38 41 37 36 33 32 33 22 32 31 29 31 29 29 29 29 30 30 30 29 29 33
25 21 8 10 18 16 21 24 25 30 34 31 29 28 29 32 29 33 32 34 38 38 38 42 42 39 35 33 34 32 31 33 27 31 31 34 32 31 32 34 39 35 33 33
18 15 10 13 17 22 18 24 28 28 32 35 34 33 31 27 28 31 33 37 34 36 37 39 41 38 37 39 39 34 34 32 30 34 36 36 38 33 37 37 42 44 38 40
13 16 13 10 15 18 13 22 24 24 26 29 32 35 34 33 31 31 36 36 38 42 41 41 44 44 44 45 44 42 40 38 37 40 40 40 38 41 39 40 43 42 45 45
8 15 10 12 8 13 15 15 23 26 25 29 34 37 37 37 34 36 35 36 39 38 37 41 46 45 46 45 45 44 43 44 44 44 44 44 45 45 47 47 46 39 55 54
6 5 9 9 6 11 13 16 18 21 21 22 24 27 33 36 37 41 39 41 42 43 43 41 41 43 44 46 48 48 49 49 48 46 44 45 46 47 49 47 49 50 47 53
9 8 9 13 11 12 9 13 11 12 11 11 11 17 20 20 26 34 34 38 42 44 44 45 46 46 46 46 46 47 47 50 50 48 48 48 48 48 46 40 51 49 52 53
15 13 17 14 13 12 8 8 3 8 12 14 16 18 19 21 20 25 30 32 30 34 35 39 39 38 40 42 45 49 49 48 45 43 45 46 43 41 47 57 54 55 56 59
21 20 20 21 19 15 7 10 6 4 4 11 17 22 23 21 19 21 23 30 29 27 24 30 34 32 38 40 38 37 36 36 35 38 38 39 41 53 54 63 62 53 48 48
18 18 20 20 18 16 15 10 10 8 5 2 7 17 26 21 18 19 25 22 19 25 29 27 32 25 24 33 34 31 32 31 33 40 42 44 43 38 34 36 36 40 42 41
17 16 16 19 18 16 14 11 14 15 10 6 5 7 8 13 20 17 9 12 17 27 27 26 28 27 21 25 23 24 26 28 28 30 29 31 33 33 27 27 25 28 32 34
20 20 20 19 19 19 18 16 17 18 15 13 11 9 8 8 13 15 16 8 11 10 20 19 17 16 20 21 24 22 23 26 26 25 26 28 27 24 25 29 29 34 39 38
18 20 23 25 25 25 24 23 21 23 22 20 18 17 15 13 12 13 13 15 19 18 16 16 14 16 18 21 22 24 22 23 25 27 28 28 30 33 35 35 32 32 34 35
22 23 24 24 26 28 30 30 27 26 27 27 25 23 22 21 19 18 16 15 15 16 18 20 18 17 19 22 23 21 24 27 31 32 32 33 33 31 30 30 32 36 38 40
23 24 26 28 30 31 33 33 34 33 32 31 30 29 27 26 24 24 23 21 20 21 20 24 24 22 21 23 21 22 25 27 30 33 34 35 36 38 39 39 41 43 45 46
26 26 26 27 26 30 34 38 38 38 38 38 36 34 33 31 29 28 26 26 24 23 23 22 25 28 29 27 30 30 30 29 30 32 33 35 37 39 39 41 43 46 48 50
19 22 21 21 21 22 23 24 31 37 38 38 37 37 36 33 32 30 29 28 27 26 25 27 27 27 26 28 31 32 33 36 38 35 34 33 35 37 42 45 48 51 52 52
19 18 21 21 20 21 23 23 23 24 27 28 29 31 32 32 33 32 30 29 28 28 28 30 35 35 32 32 33 36 36 37 39 38 38 39 40 42 43 44 46 48 51 53
24 24 24 23 21 20 22 24 23 24 24 24 26 28 29 29 30 30 31 32 32 31 30 33 35 35 34 33 34 35 39 39 40 41 41 41 42 42 43 45 48 49 51 53
30 29 27 25 23 21 21 23 24 23 23 24 26 26 27 27 29 29 30 30 31 33 34 36 37 38 38 37 39 39 40 40 40 40 40 41 42 43 45 47 48 51 53 54
38 34 30 27 24 20 20 18 19 18 21 25 25 27 25 25 27 28 29 28 30 29 31 34 36 35 34 34 36 35 35 36 38 38 38 41 43 45 47 49 51 52 55 58
Wind_Direction
258 259 259 255 250 240 249 242 242 244 248 245 257 245 238 242 203 204 216 216 215 218 201 201 208 212 214 227 230 238 246 244 247 257 262 261 255 236 226 225 228 229 232 234
256 262 264 254 244 237 235 245 241 238 230 235 273 242 236 261 214 204 185 201 210 206 197 197 207 214 217 213 228 234 236 240 248 255 266 249 257 265 246 240 232 232 235 242
253 254 256 257 249 244 232 239 245 246 257 250 265 258 231 226 209 197 214 205 179 194 213 217 236 208 212 217 216 230 234 236 240 248 260 246 242 257 263 262 263 258 253 249
249 243 247 252 240 237 238 227 231 243 252 257 250 262 239 247 244 250 211 211 203 206 218 214 214 236 220 217 223 217 226 234 239 245 252 257 254 254 256 268 267 264 262 264
246 229 235 214 221 235 235 220 226 237 245 249 252 253 256 260 237 231 244 224 210 213 224 231 228 225 223 217 217 218 216 217 230 239 246 252 260 268 268 273 270 267 267 267
220 211 217 189 192 200 236 218 220 229 237 244 247 242 242 247 252 247 228 232 223 215 228 238 225 220 234 257 234 218 222 216 224 233 243 252 252 264 270 275 274 272 275 273
212 212 203 208 200 191 223 208 231 231 234 236 242 241 245 236 244 250 239 230 223 220 230 239 237 238 235 239 236 241 234 227 224 229 239 247 253 255 260 265 268 266 270 276
204 220 198 202 229 198 218 222 220 225 228 221 233 247 244 244 247 242 237 237 229 229 232 236 241 239 241 244 249 244 238 237 241 244 247 257 251 257 272 271 267 271 271 278
196 210 212 198 202 221 228 229 228 237 240 242 250 251 246 247 242 233 234 237 236 232 229 230 234 236 234 239 247 247 251 252 251 254 256 258 260 259 269 274 261 260 264 272
170 170 160 180 208 228 232 245 244 238 240 237 238 241 244 242 237 236 231 232 233 236 238 235 237 239 240 243 244 247 253 256 258 258 255 256 258 261 265 266 274 275 278 279
204 189 200 198 226 216 235 265 257 250 247 245 237 236 237 237 236 232 225 229 230 228 231 234 235 239 244 247 249 252 253 255 254 255 258 261 264 269 270 270 269 273 276 278
118 136 149 182 236 242 252 272 267 257 260 254 253 247 241 240 241 238 230 228 230 231 229 230 234 236 239 243 249 255 259 260 261 261 260 262 265 267 268 273 274 261 278 284
248 215 226 240 263 288 261 268 241 242 231 238 247 234 245 256 257 245 241 240 237 236 234 233 235 239 243 245 247 249 252 255 257 259 261 262 263 268 264 265 272 272 274 274
258 256 237 235 267 270 286 287 220 210 231 241 239 235 241 260 267 246 241 237 239 238 238 233 241 247 250 252 253 254 258 261 265 267 265 265 268 260 255 257 266 270 271 269
252 251 247 248 261 262 246 248 267 252 257 236 224 233 239 249 247 253 251 251 246 238 248 244 240 249 253 249 254 256 256 256 256 257 258 258 260 263 255 252 251 252 254 262
248 243 247 252 251 250 256 247 257 251 234 256 240 238 239 235 229 227 234 234 240 253 240 234 227 261 247 244 239 251 255 241 251 249 242 246 246 245 248 260 270 279 281 282
247 252 247 254 256 250 252 252 254 257 247 259 271 291 287 253 226 221 205 219 238 229 227 238 241 243 219 212 227 227 237 241 244 244 263 265 260 264 263 265 274 278 281 281
248 250 254 257 259 258 255 245 248 252 255 260 263 267 280 284 293 280 273 265 252 233 215 228 234 244 236 248 259 260 251 253 255 247 251 256 261 268 272 277 285 289 290 292
253 253 254 256 257 258 257 256 253 255 257 257 263 262 263 268 283 284 285 283 277 278 261 242 249 253 254 257 258 257 249 242 245 249 254 262 267 273 279 284 287 284 283 285
264 264 262 261 260 259 258 255 250 251 253 255 256 260 260 264 268 275 285 283 280 274 264 254 244 252 255 258 258 251 244 249 253 258 266 272 276 274 277 277 279 282 287 292
269 270 271 269 268 266 263 260 258 252 249 250 253 255 255 256 259 265 273 278 281 282 278 252 252 265 272 260 260 255 251 254 258 261 267 272 272 276 280 280 284 290 293 296
275 275 278 276 276 272 272 268 261 258 256 254 251 252 255 255 256 257 262 269 278 282 288 260 248 257 263 259 255 261 265 272 273 276 279 279 281 283 281 282 284 287 292 295
275 278 280 285 284 280 282 287 275 266 261 257 257 252 251 253 255 257 259 262 265 269 269 257 254 256 257 259 260 265 267 267 270 273 273 276 281 284 285 286 287 290 293 295
282 292 286 282 287 278 277 278 279 274 264 255 253 250 246 247 251 253 256 260 261 259 264 256 257 264 262 261 266 265 266 269 270 272 276 279 284 287 288 289 290 291 293 294
273 276 284 287 283 284 274 274 273 266 259 251 246 242 242 244 248 250 255 257 259 261 264 263 262 265 261 264 267 271 272 276 277 276 280 282 284 285 286 287 288 290 292 297
274 275 279 281 278 284 272 271 273 268 254 253 253 249 245 246 248 251 254 259 262 264 266 268 263 260 263 267 269 271 274 276 275 276 279 281 283 284 286 289 292 296 300 303
271 271 273 275 275 273 270 269 272 263 248 248 252 252 252 256 254 254 256 260 263 266 270 267 259 257 265 271 272 271 273 274 274 277 279 281 284 287 291 294 299 302 304 306
Height
5549 5549 5553 5555 5558 5560 5558 5563 5567 5575 5574 5579 5578 5579 5578 5584 5588 5595 5601 5606 5613 5613 5618 5622 5630 5635 5640 5646 5650 5653 5655 5656 5658 5659 5659 5659 5660 5661 5662 5664 5667 5669 5672 5673
5537 5540 5542 5540 5544 5545 5550 5552 5560 5566 5567 5572 5572 5577 5581 5585 5589 5593 5594 5596 5605 5608 5610 5615 5622 5629 5633 5637 5643 5647 5649 5651 5653 5655 5655 5655 5657 5658 5659 5661 5662 5663 5664 5666
5526 5529 5527 5530 5540 5539 5544 5548 5553 5556 5560 5562 5567 5570 5575 5579 5581 5585 5587 5593 5596 5600 5605 5614 5617 5619 5626 5630 5632 5638 5642 5645 5648 5650 5651 5650 5652 5653 5655 5655 5656 5658 5659 5660
5517 5519 5520 5529 5526 5527 5531 5541 5545 5548 5553 5558 5564 5565 5569 5573 5576 5579 5582 5587 5591 5594 5601 5607 5613 5617 5618 5622 5626 5628 5634 5638 5641 5644 5646 5646 5648 5648 5649 5650 5651 5652 5653 5654
5508 5512 5517 5520 5519 5523 5526 5535 5537 5543 5549 5554 5559 5560 5562 5566 5569 5574 5577 5581 5585 5589 5595 5603 5607 5611 5614 5617 5617 5619 5623 5627 5633 5636 5640 5641 5641 5643 5644 5645 5645 5646 5647 5649
5501 5506 5508 5514 5517 5521 5524 5528 5532 5537 5543 5548 5552 5554 5556 5561 5564 5567 5571 5574 5578 5582 5588 5593 5601 5605 5606 5609 5613 5614 5617 5620 5624 5629 5632 5634 5635 5636 5637 5638 5638 5639 5639 5640
5499 5501 5506 5511 5513 5517 5522 5527 5526 5531 5537 5542 5545 5547 5551 5556 5559 5562 5564 5568 5571 5577 5581 5586 5590 5596 5600 5603 5605 5608 5612 5614 5616 5619 5623 5625 5627 5629 5630 5631 5631 5631 5631 5631
5496 5498 5505 5509 5512 5516 5517 5518 5520 5523 5531 5537 5540 5541 5543 5549 5553 5557 5559 5563 5566 5569 5574 5577 5581 5585 5590 5596 5599 5602 5606 5609 5609 5612 5614 5615 5617 5619 5620 5622 5622 5622 5622 5621
5495 5501 5503 5507 5509 5511 5513 5514 5518 5520 5525 5530 5533 5536 5538 5540 5544 5550 5553 5556 5560 5564 5568 5571 5574 5577 5582 5585 5590 5592 5595 5597 5600 5603 5605 5608 5609 5609 5611 5611 5611 5610 5611 5611
5497 5500 5503 5506 5509 5510 5513 5513 5514 5516 5519 5524 5527 5529 5533 5537 5539 5542 5544 5548 5553 5555 5559 5562 5566 5569 5573 5576 5580 5584 5586 5587 5589 5591 5594 5596 5598 5600 5601 5601 5601 5601 5599 5596
5498 5499 5503 5503 5504 5508 5510 5512 5512 5513 5516 5518 5521 5523 5525 5528 5532 5536 5539 5543 5546 5548 5550 5554 5557 5560 5562 5565 5568 5571 5573 5576 5580 5582 5584 5585 5586 5586 5587 5589 5589 5588 5588 5581
5495 5496 5498 5500 5505 5507 5508 5508 5508 5509 5510 5511 5514 5517 5520 5522 5524 5525 5529 5532 5536 5538 5542 5545 5548 5552 5554 5556 5558 5560 5562 5564 5567 5571 5573 5574 5575 5576 5576 5576 5576 5576 5577 5575
5494 5498 5498 5499 5502 5504 5505 5504 5503 5504 5506 5506 5508 5511 5513 5516 5517 5518 5521 5523 5525 5528 5532 5536 5539 5543 5545 5547 5549 5551 5552 5554 5556 5558 5560 5562 5565 5565 5564 5559 5564 5563 5564 5561
5493 5495 5497 5499 5501 5502 5502 5502 5500 5500 5502 5504 5506 5507 5509 5511 5512 5512 5515 5517 5519 5520 5522 5526 5530 5534 5536 5538 5539 5541 5544 5545 5546 5548 5550 5552 5554 5556 5557 5556 5551 5547 5546 5546
5491 5493 5494 5496 5498 5498 5499 5499 5498 5500 5500 5500 5502 5504 5506 5508 5507 5508 5509 5510 5513 5515 5517 5520 5523 5525 5527 5529 5531 5533 5533 5534 5535 5537 5539 5540 5542 5541 5539 5538 5538 5537 5537 5537
5487 5489 5490 5491 5492 5493 5494 5496 5496 5497 5497 5498 5498 5500 5502 5503 5503 5504 5504 5505 5507 5509 5511 5513 5516 5517 5517 5519 5523 5521 5523 5525 5527 5526 5527 5529 5530 5530 5531 5530 5527 5525 5525 5523
5484 5485 5486 5486 5487 5489 5491 5493 5493 5493 5495 5496 5496 5497 5496 5496 5498 5500 5499 5499 5501 5503 5504 5507 5509 5511 5509 5510 5513 5514 5515 5517 5519 5520 5520 5521 5523 5521 5520 5518 5514 5513 5513 5512
5480 5480 5481 5481 5481 5483 5485 5487 5488 5489 5491 5492 5493 5494 5494 5494 5494 5494 5493 5496 5497 5496 5498 5500 5501 5503 5503 5505 5505 5507 5508 5509 5511 5512 5512 5513 5512 5511 5509 5507 5502 5502 5504 5504
5473 5474 5475 5475 5476 5477 5478 5480 5482 5483 5485 5487 5488 5489 5491 5491 5492 5492 5492 5492 5492 5493 5494 5495 5496 5497 5498 5500 5500 5501 5501 5503 5504 5504 5504 5504 5503 5503 5500 5496 5496 5496 5495 5492
5467 5468 5468 5468 5469 5470 5471 5472 5474 5476 5477 5479 5482 5483 5485 5486 5487 5488 5488 5488 5489 5490 5491 5491 5492 5493 5493 5493 5495 5496 5496 5496 5496 5496 5496 5496 5494 5492 5490 5489 5487 5486 5483 5479
5462 5461 5461 5460 5461 5461 5461 5463 5464 5467 5468 5470 5472 5475 5477 5479 5480 5481 5481 5482 5483 5483 5484 5485 5485 5486 5487 5488 5488 5488 5487 5487 5487 5487 5486 5485 5485 5484 5482 5479 5476 5473 5470 5465
5456 5455 5455 5455 5454 5453 5452 5452 5453 5455 5458 5460 5463 5465 5467 5470 5472 5474 5475 5475 5475 5475 5475 5476 5477 5478 5479 5480 5480 5480 5480 5479 5479 5478 5477 5476 5475 5473 5470 5467 5464 5461 5457 5453
5449 5448 5447 5447 5446 5446 5445 5443 5442 5443 5445 5448 5451 5454 5457 5459 5462 5464 5466 5467 5468 5468 5469 5469 5470 5470 5471 5471 5471 5471 5470 5470 5469 5468 5466 5465 5463 5460 5458 5454 5451 5448 5444 5439
5442 5441 5441 5440 5439 5438 5437 5436 5435 5434 5435 5437 5439 5442 5445 5449 5451 5454 5456 5457 5459 5459 5460 5461 5462 5462 5463 5462 5461 5461 5460 5459 5458 5457 5454 5452 5450 5447 5444 5441 5437 5434 5430 5425
5435 5434 5433 5432 5431 5430 5429 5428 5427 5427 5427 5428 5430 5432 5435 5438 5441 5443 5445 5446 5447 5448 5449 5450 5450 5450 5451 5450 5450 5449 5448 5447 5446 5444 5442 5439 5436 5433 5430 5427 5424 5420 5416 5410
5425 5425 5424 5424 5423 5423 5422 5421 5420 5419 5420 5421 5422 5424 5426 5428 5430 5433 5434 5435 5436 5437 5437 5437 5437 5438 5438 5438 5437 5437 5435 5434 5432 5430 5428 5426 5423 5421 5417 5414 5409 5404 5399 5393
5412 5414 5414 5415 5415 5415 5415 5414 5413 5413 5413 5414 5415 5417 5419 5420 5421 5422 5424 5424 5425 5425 5425 5425 5425 5426 5426 5426 5425 5424 5422 5421 5419 5417 5415 5413 5410 5407 5403 5398 5392 5387 5381 5375